Location: Alston School (historical)
(35.5076°N, 89.8251°W)
Time: 16:40:11
(UTC+00:00)

Cosmos 2058 Rocket - Pass Details

Date: 19 March 2026
Orbit: 604 x 632 km, 82.5° (Epoch: 18 April)

Event Time Altitude Azimuth Distance (km) Brightness Sun altitude
Rises 11:15:07 0° 171° (S) 2,885 6.5 -10.8°
Reaches altitude 10° 11:17:23 10° 165° (SSE) 1,988 5.8 -10.3°
Maximum altitude 11:21:36 46° 92° (E) 845 4.3 -9.5°
Drops below altitude 10° 11:25:52 10° 20° (NNE) 2,014 6.0 -8.6°
Sets 11:28:11 0° 14° (NNE) 2,928 6.8 -8.2°
